Weather History for Show Low, AZ

Change the Weather History Date:

Thursday, October 11, 2012

  Actual Average Record
Temperature  
Mean Temperature 56 °F -  
Max Temperature 68 °F 67 °F 82 °F (1991)
Min Temperature 44 °F 44 °F 23 °F (2013)
Degree Days  
Heating Degree Days 9    
Growing Degree Days 6 (Base 50)    
Moisture  
Dew Point 36 °F    
Average Humidity 53    
Maximum Humidity 87    
Minimum Humidity 26    
Precipitation  
Precipitation 0.00 in - - ()
Sea Level Pressure  
Sea Level Pressure 30.15 in    
Wind  
Wind Speed 10 mph (South)    
Max Wind Speed 23 mph    
Max Gust Speed 36 mph    
Visibility 10 miles    
Events Rain , Thunderstorm    
Averages and records for this station are not official NWS values.
T = Trace of Precipitation, MM = Missing Value Source: NWS Daily Summary

Daily Weather History Graph

Daily Weather History Graph

Search for Another Location

Airport:

Trip Planner

Search our weather history database for the weather conditions in past years. The results will help you decide how hot, cold, wet, or windy it might be!

Date:

Astronomy

Oct. 11, 2012 Rise Set
Actual Time 6:22 AM MST 5:50 PM MST
Civil Twilight 5:57 AM MST 6:15 PM MST
Nautical Twilight 5:28 AM MST 6:44 PM MST
Astronomical Twilight 4:59 AM MST 7:13 PM MST
Moon 2:14 AM MST (10/11) 3:19 PM MST (10/11)
Length of Visible Light 12h 17m
Length of Day
11h 27m
Waning Crescent, 17% of the Moon is Illuminated
Oct 11
Waning Crescent
Oct 15
New
Oct 21
First Quarter
Oct 29
Full
Nov 6
Last Quarter

Hourly Weather History & Observations

Time (MST) Temp. Windchill Dew Point Humidity Pressure Visibility Wind Dir Wind Speed Gust Speed Precip Events Conditions
12:15 AM 46.4 °F 42.9 °F 30.2 °F 53% 30.16 in 10.0 mi South 6.9 mph - N/A   Clear
12:35 AM 46.4 °F 42.9 °F 30.2 °F 53% 30.16 in 10.0 mi South 6.9 mph - N/A   Clear
12:55 AM 46.4 °F 43.5 °F 30.2 °F 53% 30.16 in 10.0 mi South 5.8 mph - N/A   Clear
1:15 AM 48.2 °F - 32.0 °F 54% 30.16 in 10.0 mi South 8.1 mph - N/A   Clear
1:35 AM 48.2 °F - 32.0 °F 54% 30.16 in 10.0 mi South 9.2 mph - N/A   Clear
1:55 AM 48.2 °F - 32.0 °F 54% 30.16 in 10.0 mi South 10.4 mph - N/A   Clear
2:15 AM 50.0 °F - 32.0 °F 50% 30.15 in 10.0 mi South 10.4 mph - N/A   Clear
2:35 AM 50.0 °F - 32.0 °F 50% 30.15 in 10.0 mi South 10.4 mph - N/A   Clear
2:55 AM 50.0 °F - 32.0 °F 50% 30.14 in 10.0 mi South 11.5 mph - N/A   Clear
3:15 AM 50.0 °F - 30.2 °F 47% 30.14 in 10.0 mi South 11.5 mph - N/A   Clear
3:35 AM 50.0 °F - 30.2 °F 47% 30.15 in 10.0 mi South 11.5 mph - N/A   Clear
3:55 AM 50.0 °F - 30.2 °F 47% 30.15 in 10.0 mi South 11.5 mph - N/A   Clear
4:15 AM 50.0 °F - 30.2 °F 47% 30.15 in 10.0 mi South 9.2 mph - N/A   Clear
4:35 AM 50.0 °F - 30.2 °F 47% 30.15 in 10.0 mi South 9.2 mph - N/A   Clear
4:55 AM 50.0 °F - 30.2 °F 47% 30.15 in 10.0 mi South 8.1 mph - N/A   Clear
5:15 AM 48.2 °F - 30.2 °F 50% 30.15 in 10.0 mi SSE 8.1 mph - N/A   Clear
5:35 AM 46.4 °F 42.9 °F 30.2 °F 53% 30.15 in 9.0 mi South 6.9 mph - N/A   Clear
5:55 AM 46.4 °F 42.9 °F 30.2 °F 53% 30.15 in 10.0 mi South 6.9 mph - N/A   Clear
6:15 AM 44.6 °F 40.2 °F 30.2 °F 57% 30.16 in 10.0 mi SSW 8.1 mph - N/A   Clear
6:35 AM 46.4 °F 41.5 °F 32.0 °F 57% 30.17 in 10.0 mi South 10.4 mph - N/A   Clear
6:55 AM 48.2 °F - 32.0 °F 54% 30.17 in 10.0 mi South 9.2 mph - N/A   Scattered Clouds
7:15 AM 50.0 °F - 32.0 °F 50% 30.18 in 10.0 mi South 6.9 mph - N/A   Partly Cloudy
7:35 AM 51.8 °F - 32.0 °F 47% 30.18 in 10.0 mi South 6.9 mph - N/A   Mostly Cloudy
7:55 AM 55.4 °F - 32.0 °F 41% 30.19 in 10.0 mi South 6.9 mph - N/A   Mostly Cloudy
8:15 AM 59.0 °F - 32.0 °F 36% 30.20 in 10.0 mi South 9.2 mph - N/A   Mostly Cloudy
8:35 AM 60.8 °F - 32.0 °F 34% 30.20 in 10.0 mi SSW 8.1 mph - N/A   Clear
8:55 AM 59.0 °F - 32.0 °F 36% 30.20 in 10.0 mi South 5.8 mph - N/A   Mostly Cloudy
9:15 AM 62.6 °F - 33.8 °F 34% 30.21 in 10.0 mi SSW 11.5 mph 16.1 mph N/A   Scattered Clouds
9:35 AM 60.8 °F - 32.0 °F 34% 30.20 in 10.0 mi South 12.7 mph 20.7 mph N/A   Mostly Cloudy
9:55 AM 60.8 °F - 32.0 °F 34% 30.19 in 10.0 mi South 13.8 mph 19.6 mph N/A   Mostly Cloudy
10:15 AM 60.8 °F - 33.8 °F 36% 30.20 in 10.0 mi SSW 10.4 mph - N/A   Mostly Cloudy
10:35 AM 62.6 °F - 35.6 °F 37% 30.19 in 10.0 mi South 12.7 mph - N/A   Mostly Cloudy
10:55 AM 64.4 °F - 35.6 °F 34% 30.18 in 10.0 mi South 15.0 mph - N/A   Clear
11:15 AM 64.4 °F - 37.4 °F 37% 30.17 in 10.0 mi South 23.0 mph 29.9 mph N/A   Clear
11:35 AM 66.2 °F - 37.4 °F 35% 30.16 in 10.0 mi SSW 19.6 mph 28.8 mph N/A   Clear
11:55 AM 66.2 °F - 33.8 °F 30% 30.16 in 10.0 mi SSW 18.4 mph 23.0 mph N/A   Partly Cloudy
12:15 PM 68.0 °F - 32.0 °F 26% 30.15 in 10.0 mi South 19.6 mph 25.3 mph N/A   Partly Cloudy
12:35 PM 68.0 °F - 32.0 °F 26% 30.14 in 10.0 mi South 19.6 mph 31.1 mph N/A   Clear
12:55 PM 66.2 °F - 32.0 °F 28% 30.13 in 10.0 mi South 23.0 mph 35.7 mph N/A   Partly Cloudy
1:15 PM 66.2 °F - 32.0 °F 28% 30.13 in 10.0 mi South 21.9 mph 28.8 mph N/A   Partly Cloudy
1:35 PM 66.2 °F - 32.0 °F 28% 30.13 in 10.0 mi South 16.1 mph 29.9 mph N/A   Scattered Clouds
1:55 PM 64.4 °F - 32.0 °F 30% 30.13 in 10.0 mi SSW 17.3 mph 27.6 mph N/A   Partly Cloudy
2:15 PM 64.4 °F - 32.0 °F 30% 30.15 in 10.0 mi South 23.0 mph 34.5 mph N/A   Mostly Cloudy
2:35 PM 59.0 °F - 39.2 °F 48% 30.14 in 9.0 mi South 23.0 mph 33.4 mph N/A Rain Light Rain
2:55 PM 57.2 °F - 39.2 °F 51% 30.16 in 8.0 mi South 23.0 mph 29.9 mph N/A Rain Light Rain
3:15 PM 53.6 °F - 44.6 °F 72% 30.16 in 5.0 mi SSW 12.7 mph 20.7 mph N/A Rain Light Rain
3:35 PM 51.8 °F - 46.4 °F 82% 30.15 in 4.0 mi South 8.1 mph - N/A Rain Light Rain
3:55 PM 53.6 °F - 46.4 °F 77% 30.14 in 7.0 mi South 13.8 mph 18.4 mph N/A Rain Light Rain
4:15 PM 53.6 °F - 46.4 °F 77% 30.13 in 10.0 mi South 13.8 mph - N/A   Partly Cloudy
4:35 PM 53.6 °F - 44.6 °F 72% 30.12 in 10.0 mi South 12.7 mph - N/A   Clear
4:55 PM 53.6 °F - 44.6 °F 72% 30.11 in 10.0 mi South 10.4 mph 19.6 mph N/A   Partly Cloudy
5:15 PM 53.6 °F - 42.8 °F 67% 30.11 in 10.0 mi South 9.2 mph - N/A   Clear
5:35 PM 51.8 °F - 42.8 °F 71% 30.11 in 10.0 mi South 9.2 mph - N/A   Partly Cloudy
5:55 PM 51.8 °F - 42.8 °F 71% 30.11 in 10.0 mi South 10.4 mph - N/A   Scattered Clouds
6:15 PM 51.8 °F - 41.0 °F 67% 30.12 in 10.0 mi South 10.4 mph - N/A   Partly Cloudy
6:35 PM 51.8 °F - 39.2 °F 62% 30.12 in 10.0 mi South 9.2 mph - N/A   Partly Cloudy
6:55 PM 50.0 °F - 41.0 °F 71% 30.12 in 10.0 mi SSW 9.2 mph - N/A   Scattered Clouds
7:15 PM 51.8 °F - 41.0 °F 67% 30.13 in 10.0 mi South 9.2 mph - N/A   Partly Cloudy
7:35 PM 51.8 °F - 39.2 °F 62% 30.13 in 10.0 mi South 8.1 mph - N/A Thunderstorm Partly Cloudy
7:55 PM 53.6 °F - 37.4 °F 54% 30.14 in 9.0 mi South 9.2 mph - N/A   Partly Cloudy
8:35 PM 50.0 °F - 41.0 °F 71% 30.13 in 10.0 mi SSE 10.4 mph - N/A   Scattered Clouds
8:55 PM 51.8 °F - 39.2 °F 62% 30.13 in 10.0 mi SE 8.1 mph - N/A   Mostly Cloudy
9:15 PM 51.8 °F - 39.2 °F 62% 30.13 in 10.0 mi SSE 9.2 mph - N/A   Mostly Cloudy
9:35 PM 51.8 °F - 39.2 °F 62% 30.14 in 10.0 mi SSE 12.7 mph - N/A   Scattered Clouds
9:55 PM 51.8 °F - 39.2 °F 62% 30.13 in 10.0 mi SE 10.4 mph - N/A   Partly Cloudy
10:15 PM 53.6 °F - 39.2 °F 58% 30.12 in 10.0 mi SE 6.9 mph - N/A   Scattered Clouds
10:35 PM 50.0 °F - 42.8 °F 76% 30.13 in 5.0 mi South 6.9 mph - N/A Rain , Thunderstorm Light Thunderstorms and Rain
10:55 PM 48.2 °F - 44.6 °F 87% 30.11 in 9.0 mi SSE 8.1 mph - N/A   Partly Cloudy
11:15 PM 48.2 °F - 42.8 °F 82% 30.12 in 10.0 mi SSE 6.9 mph - N/A Thunderstorm Clear
11:35 PM 46.4 °F 43.5 °F 42.8 °F 87% 30.10 in 10.0 mi SSE 5.8 mph - N/A Thunderstorm Thunderstorm
11:55 PM 48.2 °F - 42.8 °F 82% 30.09 in 10.0 mi South 5.8 mph - N/A Thunderstorm Scattered Clouds